| time (UTC) | temp F | wind direction | speed MPH | gust MPH | rain 1hr in | rain 24hr in | rain mn in | humidity % | barometer mb |
| 20260831192805 | 55 | 241 | 2.0 | 7.0 | 0.02 | 0.12 | 0.06 | 4 | 1016.3 |
| 20260831192306 | 54 | 232 | 2.0 | 7.0 | 0.02 | 0.12 | 0.06 | 4 | 1016.4 |
| 20260831191805 | 54 | 222 | 1.0 | 10.0 | 0.02 | 0.12 | 0.06 | 4 | 1016.4 |
| 20260831190304 | 54 | 222 | 3.0 | 14.0 | 0.01 | 0.10 | 0.05 | 4 | 1016.1 |
| 20260831185806 | 54 | 220 | 6.0 | 13.0 | 0.01 | 0.10 | 0.05 | 4 | 1016.2 |
| 20260831185306 | 54 | 218 | 5.0 | 15.0 | 0.01 | 0.10 | 0.05 | 4 | 1016.4 |
| 20260831184305 | 55 | 214 | 9.0 | 24.0 | 0.02 | 0.10 | 0.05 | 4 | 1016.3 |
| 20260831183804 | 55 | 211 | 6.0 | 10.0 | 0.02 | 0.09 | 0.04 | 4 | 1015.9 |
| 20260831182805 | 55 | 222 | 5.0 | 10.0 | 0.02 | 0.09 | 0.04 | 4 | 1015.7 |
| 20260831181806 | 54 | 230 | 6.0 | 13.0 | 0.02 | 0.09 | 0.04 | 4 | 1015.7 |
| 20260831180306 | 54 | 220 | 3.0 | 10.0 | 0.02 | 0.09 | 0.04 | 4 | 1015.5 |
| 20260831175804 | 54 | 222 | 2.0 | 7.0 | 0.02 | 0.09 | 0.04 | 4 | 1015.4 |
| 20260831175306 | 54 | 209 | 4.0 | 12.0 | 0.02 | 0.09 | 0.04 | 4 | 1015.3 |
| 20260831173804 | 55 | 219 | 2.0 | 6.0 | 0.01 | 0.07 | 0.02 | 4 | 1014.9 |
| 20260831173306 | 55 | 214 | 2.0 | 9.0 | 0.01 | 0.07 | 0.02 | 4 | 1015.0 |
| 20260831172805 | 55 | 160 | 2.0 | 6.0 | 0.01 | 0.07 | 0.02 | 4 | 1014.9 |
| 20260831172306 | 55 | 234 | 5.0 | 12.0 | 0.01 | 0.07 | 0.02 | 4 | 1014.6 |
| 20260831171304 | 55 | 235 | 5.0 | 9.0 | 0.01 | 0.07 | 0.02 | 4 | 1014.4 |
| 20260831170305 | 55 | 229 | 6.0 | 13.0 | 0.01 | 0.07 | 0.02 | 4 | 1014.3 |
| 20260831164304 | 55 | 234 | 2.0 | 6.0 | 0.01 | 0.06 | 0.01 | 4 | 1014.1 |
| 20260831163304 | 55 | 231 | 5.0 | 13.0 | 0.01 | 0.06 | 0.01 | 4 | 1014.2 |
| 20260831162306 | 54 | 247 | 8.0 | 13.0 | 0.01 | 0.06 | 0.01 | 4 | 1014.1 |
| 20260831155803 | 54 | 219 | 3.0 | 16.0 | 0.01 | 0.06 | 0.01 | 4 | 1014.1 |
| 20260831155306 | 55 | 216 | 5.0 | 17.0 | 0.01 | 0.06 | 0.01 | 4 | 1014.1 |
| 20260831152804 | 55 | 234 | 5.0 | 13.0 | 0.00 | 0.06 | 0.00 | 4 | 1013.7 |
| 20260831152306 | 54 | 221 | 6.0 | 14.0 | 0.00 | 0.06 | 0.00 | 4 | 1013.7 |
| 20260831150303 | 54 | 216 | 5.0 | 12.0 | 0.00 | 0.06 | 0.00 | 4 | 1013.9 |
| 20260831145306 | 55 | 238 | 6.0 | 13.0 | 0.00 | 0.06 | 0.00 | 4 | 1013.9 |
| 20260831144304 | 55 | 241 | 5.0 | 12.0 | 0.00 | 0.06 | 0.00 | 4 | 1014.3 |
| 20260831143803 | 55 | 228 | 5.0 | 9.0 | 0.00 | 0.06 | 0.00 | 4 | 1014.3 |
| 20260831141304 | 54 | 241 | 6.0 | 15.0 | 0.00 | 0.06 | 0.00 | 4 | 1014.4 |
| 20260831135804 | 54 | 228 | 3.0 | 12.0 | 0.00 | 0.07 | 0.00 | 4 | 1014.3 |
| 20260831135306 | 54 | 215 | 3.0 | 17.0 | 0.00 | 0.07 | 0.00 | 4 | 1014.4 |
| 20260831133804 | 55 | 186 | 2.0 | 18.0 | 0.00 | 0.07 | 0.00 | 4 | 1014.3 |
| 20260831133304 | 55 | 222 | 2.0 | 7.0 | 0.00 | 0.07 | 0.00 | 4 | 1014.3 |
| 20260831131304 | 54 | 194 | 3.0 | 8.0 | 0.00 | 0.07 | 0.00 | 4 | 1014.4 |
| 20260831125306 | 55 | 242 | 2.0 | 8.0 | 0.00 | 0.07 | 0.00 | 4 | 1014.0 |
| 20260831124303 | 55 | 239 | 1.0 | 7.0 | 0.00 | 0.07 | 0.00 | 4 | 1014.0 |
| 20260831123804 | 55 | 238 | 1.0 | 10.0 | 0.00 | 0.07 | 0.00 | 4 | 1014.0 |
| 20260831122306 | 55 | 260 | 4.0 | 12.0 | 0.00 | 0.07 | 0.00 | 16 | 1013.8 |
| 20260831120304 | 55 | 222 | 5.0 | 12.0 | 0.00 | 0.07 | 0.00 | 21 | 1014.0 |
| 20260831114804 | 55 | 212 | 6.0 | 15.0 | 0.00 | 0.07 | 0.07 | 10 | 1013.9 |
| 20260831113303 | 55 | 231 | 6.0 | 15.0 | 0.00 | 0.07 | 0.07 | 4 | 1013.8 |
| 20260831110804 | 55 | 228 | 9.0 | 15.0 | 0.00 | 0.07 | 0.07 | 4 | 1013.7 |
| 20260831105306 | 55 | 226 | 7.0 | 15.0 | 0.00 | 0.07 | 0.07 | 4 | 1013.5 |
| 20260831103804 | 55 | 220 | 6.0 | 12.0 | 0.00 | 0.07 | 0.07 | 4 | 1013.5 |
| 20260831103304 | 54 | 239 | 5.0 | 13.0 | 0.00 | 0.07 | 0.07 | 4 | 1013.5 |
| 20260831102803 | 54 | 231 | 5.0 | 12.0 | 0.00 | 0.07 | 0.07 | 4 | 1013.5 |
| 20260831101804 | 54 | 227 | 9.0 | 20.0 | 0.00 | 0.07 | 0.07 | 4 | 1013.4 |
| 20260831101304 | 54 | 237 | 7.0 | 17.0 | 0.00 | 0.07 | 0.07 | 4 | 1013.4 |
| 20260831095306 | 54 | 230 | 9.0 | 17.0 | 0.00 | 0.07 | 0.07 | 6 | 1013.1 |
| 20260831093804 | 54 | 233 | 7.0 | 17.0 | 0.00 | 0.07 | 0.07 | 4 | 1013.0 |
| 20260831093304 | 54 | 213 | 7.0 | 16.0 | 0.01 | 0.07 | 0.07 | 4 | 1013.0 |
| 20260831090304 | 55 | 225 | 7.0 | 16.0 | 0.01 | 0.07 | 0.07 | 4 | 1012.8 |
| 20260831084804 | 56 | 210 | 6.0 | 18.0 | 0.01 | 0.07 | 0.07 | 4 | 1012.9 |
| 20260831083304 | 57 | 200 | 5.0 | 15.0 | 0.00 | 0.06 | 0.06 | 4 | 1012.7 |
| 20260831082803 | 57 | 218 | 3.0 | 12.0 | 0.00 | 0.06 | 0.06 | 4 | 1012.8 |
| 20260831081304 | 57 | 226 | 11.0 | 18.0 | 0.00 | 0.06 | 0.06 | 4 | 1012.5 |
| 20260831080304 | 57 | 225 | 7.0 | 14.0 | 0.00 | 0.06 | 0.06 | 4 | 1012.4 |
| 20260831075804 | 57 | 220 | 6.0 | 14.0 | 0.00 | 0.06 | 0.06 | 4 | 1012.4 |
| 20260831074804 | 56 | 234 | 7.0 | 17.0 | 0.00 | 0.07 | 0.06 | 4 | 1012.6 |
| 20260831074304 | 56 | 223 | 9.0 | 20.0 | 0.00 | 0.07 | 0.06 | 4 | 1012.6 |
| 20260831073804 | 56 | 227 | 9.0 | 20.0 | 0.00 | 0.07 | 0.06 | 4 | 1012.6 |
| 20260831073304 | 56 | 238 | 9.0 | 16.0 | 0.01 | 0.07 | 0.06 | 4 | 1012.5 |
| 20260831071804 | 57 | 237 | 9.0 | 20.0 | 0.01 | 0.07 | 0.06 | 4 | 1012.4 |
| 20260831071305 | 57 | 217 | 9.0 | 17.0 | 0.02 | 0.07 | 0.06 | 4 | 1012.5 |
| 20260831065306 | 57 | 243 | 9.0 | 17.0 | 0.02 | 0.07 | 0.06 | 4 | 1012.1 |
| 20260831063804 | 57 | 210 | 6.0 | 17.0 | 0.02 | 0.07 | 0.06 | 4 | 1012.1 |
| 20260831062305 | 56 | 223 | 5.0 | 9.0 | 0.02 | 0.06 | 0.06 | 4 | 1012.2 |
| 20260831061804 | 56 | 225 | 6.0 | 13.0 | 0.02 | 0.06 | 0.06 | 4 | 1012.1 |
| 20260831055804 | 56 | 236 | 9.0 | 17.0 | 0.00 | 0.05 | 0.04 | 4 | 1011.6 |
| 20260831054304 | 56 | 240 | 11.0 | 22.0 | 0.00 | 0.05 | 0.04 | 4 | 1011.5 |
| 20260831053803 | 56 | 226 | 7.0 | 14.0 | 0.00 | 0.05 | 0.04 | 4 | 1011.6 |
| 20260831051803 | 58 | 218 | 10.0 | 20.0 | 0.00 | 0.05 | 0.04 | 40 | 1011.2 |
| 20260831050804 | 58 | 228 | 13.0 | 21.0 | 0.00 | 0.05 | 0.04 | 44 | 1011.2 |
| 20260831050304 | 58 | 230 | 11.0 | 22.0 | 0.00 | 0.05 | 0.04 | 42 | 1011.2 |
| 20260831045306 | 59 | 231 | 15.0 | 28.0 | 0.00 | 0.05 | 0.04 | 44 | 1011.1 |
| 20260831044804 | 59 | 232 | 14.0 | 29.0 | 0.00 | 0.05 | 0.04 | 41 | 1010.9 |
| 20260831044303 | 59 | 232 | 10.0 | 23.0 | 0.00 | 0.05 | 0.04 | 38 | 1011.0 |
| 20260831043804 | 59 | 231 | 10.0 | 28.0 | 0.00 | 0.05 | 0.04 | 36 | 1010.9 |
| 20260831043304 | 59 | 233 | 9.0 | 24.0 | 0.00 | 0.05 | 0.04 | 38 | 1010.9 |
| 20260831042804 | 59 | 225 | 8.0 | 20.0 | 0.00 | 0.05 | 0.04 | 36 | 1010.9 |
| 20260831042307 | 59 | 226 | 9.0 | 12.0 | 0.00 | 0.05 | 0.04 | 34 | 1010.7 |
| 20260831040304 | 60 | 237 | 10.0 | 24.0 | 0.00 | 0.05 | 0.04 | 43 | 1010.7 |
| 20260831035306 | 60 | 229 | 17.0 | 33.0 | 0.00 | 0.05 | 0.04 | 43 | 1010.7 |
| 20260831034805 | 60 | 233 | 11.0 | 22.0 | 0.00 | 0.05 | 0.04 | 39 | 1010.6 |
| 20260831032804 | 59 | 222 | 14.0 | 24.0 | 0.01 | 0.05 | 0.04 | 19 | 1010.7 |
| 20260831032306 | 59 | 231 | 11.0 | 21.0 | 0.01 | 0.05 | 0.04 | 12 | 1010.8 |
| 20260831031804 | 58 | 235 | 10.0 | 21.0 | 0.01 | 0.05 | 0.04 | 6 | 1010.9 |
| 20260831031305 | 58 | 226 | 9.0 | 22.0 | 0.01 | 0.05 | 0.04 | 4 | 1011.1 |
| 20260831030305 | 58 | 221 | 10.0 | 26.0 | 0.01 | 0.05 | 0.04 | 7 | 1011.4 |
| 20260831025306 | 58 | 209 | 7.0 | 17.0 | 0.01 | 0.05 | 0.04 | 4 | 1011.1 |
| 20260831024804 | 58 | 219 | 6.0 | 14.0 | 0.01 | 0.05 | 0.04 | 4 | 1011.1 |
| 20260831023305 | 58 | 225 | 10.0 | 21.0 | 0.00 | 0.04 | 0.03 | 4 | 1011.2 |
| 20260831022806 | 58 | 239 | 9.0 | 24.0 | 0.00 | 0.04 | 0.03 | 32 | 1011.1 |
| 20260831022306 | 60 | 220 | 7.0 | 22.0 | 0.00 | 0.04 | 0.03 | 35 | 1011.2 |
| 20260831021806 | 60 | 225 | 9.0 | 22.0 | 0.00 | 0.04 | 0.03 | 43 | 1011.0 |
| 20260831021305 | 60 | 212 | 10.0 | 26.0 | 0.00 | 0.04 | 0.03 | 46 | 1011.1 |
| 20260831015306 | 60 | 223 | 13.0 | 26.0 | 0.00 | 0.04 | 0.03 | 49 | 1011.3 |
| 20260831014305 | 60 | 239 | 12.0 | 23.0 | 0.00 | 0.04 | 0.03 | 45 | 1011.2 |
| 20260831013805 | 60 | 248 | 13.0 | 25.0 | 0.00 | 0.04 | 0.03 | 38 | 1011.3 |
| 20260831012805 | 61 | 208 | 7.0 | 22.0 | 0.00 | 0.04 | 0.03 | 45 | 1011.3 |
| 20260831011305 | 60 | 238 | 9.0 | 20.0 | 0.00 | 0.04 | 0.03 | 26 | 1011.5 |
| 20260831005306 | 60 | 238 | 6.0 | 24.0 | 0.00 | 0.04 | 0.03 | 44 | 1011.6 |
| 20260831004304 | 61 | 227 | 14.0 | 26.0 | 0.00 | 0.04 | 0.03 | 45 | 1011.7 |
| 20260831003805 | 61 | 231 | 14.0 | 25.0 | 0.00 | 0.04 | 0.03 | 39 | 1011.7 |
| 20260831001804 | 60 | 217 | 11.0 | 25.0 | 0.00 | 0.04 | 0.03 | 42 | 1011.9 |
| 20260831000305 | 60 | 248 | 7.0 | 20.0 | 0.00 | 0.04 | 0.03 | 36 | 1012.0 |
| 20260830235805 | 59 | 239 | 6.0 | 14.0 | 0.00 | 0.04 | 0.03 | 30 | 1012.0 |
| 20260830234806 | 59 | 235 | 9.0 | 17.0 | 0.00 | 0.04 | 0.03 | 17 | 1012.1 |
| 20260830234304 | 59 | 236 | 9.0 | 15.0 | 0.00 | 0.04 | 0.03 | 5 | 1012.1 |
| 20260830233806 | 58 | 218 | 6.0 | 20.0 | 0.00 | 0.04 | 0.03 | 4 | 1012.1 |
| 20260830231805 | 59 | 239 | 11.0 | 20.0 | 0.00 | 0.04 | 0.03 | 21 | 1012.3 |
| 20260830230805 | 59 | 227 | 9.0 | 22.0 | 0.00 | 0.04 | 0.03 | 23 | 1012.2 |
| 20260830225306 | 59 | 240 | 6.0 | 17.0 | 0.00 | 0.04 | 0.03 | 24 | 1012.1 |
| 20260830224804 | 59 | 232 | 8.0 | 17.0 | 0.00 | 0.04 | 0.03 | 31 | 1012.0 |
| 20260830224305 | 58 | 233 | 9.0 | 21.0 | 0.00 | 0.04 | 0.03 | 29 | 1012.1 |
| 20260830223307 | 59 | 230 | 9.0 | 18.0 | 0.00 | 0.04 | 0.03 | 34 | 1012.2 |
| 20260830222306 | 59 | 223 | 7.0 | 17.0 | 0.00 | 0.04 | 0.03 | 39 | 1012.2 |
| 20260830221804 | 59 | 234 | 12.0 | 21.0 | 0.00 | 0.04 | 0.03 | 45 | 1012.2 |
| 20260830221305 | 60 | 222 | 10.0 | 24.0 | 0.00 | 0.04 | 0.03 | 46 | 1012.4 |
| 20260830220305 | 59 | 209 | 6.0 | 13.0 | 0.00 | 0.04 | 0.03 | 36 | 1012.5 |
| 20260830215804 | 59 | 241 | 8.0 | 14.0 | 0.00 | 0.04 | 0.03 | 28 | 1012.5 |
| 20260830214807 | 57 | 228 | 5.0 | 20.0 | 0.00 | 0.04 | 0.03 | 11 | 1012.5 |
| 20260830211805 | 57 | 229 | 7.0 | 17.0 | 0.00 | 0.04 | 0.03 | 4 | 1012.7 |
| 20260830211305 | 58 | 216 | 5.0 | 12.0 | 0.00 | 0.04 | 0.03 | 4 | 1012.7 |
| 20260830210805 | 58 | 213 | 8.0 | 16.0 | 0.00 | 0.04 | 0.03 | 4 | 1012.7 |
| 20260830210304 | 59 | 226 | 6.0 | 15.0 | 0.00 | 0.04 | 0.03 | 4 | 1012.7 |
| 20260830205805 | 59 | 231 | 2.0 | 9.0 | 0.00 | 0.04 | 0.03 | 4 | 1012.7 |
| 20260830203806 | 58 | 243 | 4.0 | 14.0 | 0.01 | 0.04 | 0.03 | 4 | 1012.7 |
| 20260830202804 | 58 | 220 | 3.0 | 9.0 | 0.02 | 0.04 | 0.03 | 4 | 1012.7 |
| 20260830201304 | 57 | 236 | 5.0 | 10.0 | 0.02 | 0.04 | 0.03 | 4 | 1012.8 |
| 20260830195306 | 57 | 237 | 4.0 | 12.0 | 0.02 | 0.04 | 0.03 | 4 | 1012.7 |
| 20260830194304 | 57 | 239 | 3.0 | 7.0 | 0.01 | 0.03 | 0.02 | 4 | 1012.5 |